This is the latest recevied weather packets stored in our database for station/object DL3MEB-6. If no packets are shown the sender has not sent any weather packets the latest 10 day(s).
| Time | Temp. | Humidity | Pressure | Rain* | Wind** | Luminosity | Snow |
|---|---|---|---|---|---|---|---|
| 1777949489 | 11.67° C | 88% | 1007.8 hPa | 0 mm | - | - | - |
| 1777948581 | 11.67° C | 88% | 1008 hPa | 0 mm | - | - | - |
| 1777947674 | 12.22° C | 87% | 1008.1 hPa | 0 mm | - | - | - |
| 1777946771 | 12.78° C | 85% | 1008 hPa | 0 mm | - | - | - |
| 1777945870 | 12.78° C | 85% | 1007.9 hPa | 0 mm | - | - | - |
| 1777944970 | 13.33° C | 84% | 1007.9 hPa | 0 mm | - | - | - |
| 1777944062 | 13.33° C | 82% | 1008 hPa | 0 mm | - | - | - |
| 1777943150 | 13.89° C | 81% | 1007.9 hPa | 0 mm | - | - | - |
| 1777942247 | 13.89° C | 81% | 1008.1 hPa | 0 mm | - | - | - |
| 1777941338 | 14.44° C | 78% | 1008.2 hPa | 0 mm | - | - | - |
| 1777940433 | 14.44° C | 74% | 1008.1 hPa | 0 mm | - | - | - |
| 1777939527 | 15° C | 69% | 1008.5 hPa | 0 mm | - | - | - |
| 1777938657 | 15.56° C | 67% | 1008.4 hPa | 0 mm | - | - | - |
| 1777938625 | 15.56° C | 67% | 1008.4 hPa | 0 mm | - | - | - |
| 1777937724 | 16.11° C | 65% | 1008.4 hPa | 0 mm | - | - | - |
| 1777936816 | 16.11° C | 64% | 1008.4 hPa | 0 mm | - | - | - |
| 1777935910 | 16.67° C | 62% | 1008.7 hPa | 0 mm | - | - | - |
| 1777935001 | 16.67° C | 62% | 1008.7 hPa | 0 mm | - | - | - |
| 1777934097 | 16.67° C | 61% | 1008.7 hPa | 0 mm | - | - | - |
| 1777933187 | 16.11° C | 62% | 1008.9 hPa | 0 mm | - | - | - |
| 1777932287 | 16.11° C | 64% | 1009.1 hPa | 0 mm | - | - | - |
| 1777931380 | 16.67° C | 66% | 1009.5 hPa | 0 mm | - | - | - |
| 1777930465 | 16.67° C | 65% | 1010 hPa | 0 mm | - | - | - |
| 1777929557 | 16.67° C | 66% | 1010.2 hPa | 0 mm | - | - | - |
| 1777928649 | 17.22° C | 65% | 1010.4 hPa | 0 mm | - | - | - |
* Rain latest hour (hover to see other rain measurements)
** Current wind speed in m/s (hover to see current wind gust speed)